默认 日期 大小 文件数 浏览量 最新下载 xml
ibrahim磁力链接相关资源由用户搜索指令自动获取,结果来源于网络,本站不存储任何资料,亦不承担任何责任,请于24小时内删除,搜索到495个磁力,用时0ms。
    ... , "06 - Movement III.flac": 106101318, "Ibrahim Maalouf - Kalthoum.jpg": 206047}
创建时间: 2018-11-02 20:03:55 大小:324.11 MB 文件数量:10 热度:12 最近下载:2023-04-07 08:20:03
    {"Monsieur Ibrahim et les fleurs du Coran.2003.720p.BluRay.AVC-mfcorrea.mkv": 5594749996}
创建时间: 2018-11-03 20:43:59 大小:5.21 GB 文件数量:1 热度:23 最近下载:2025-09-08 23:18:03
    ... t01.flac": 8134095, "Abdullah Ibrahim 2018-02-17 late 16bit ... t02.flac": 85556549, "Abdullah Ibrahim 2018-02-17 late 16bit ... t03.flac": 36818756, "Abdullah Ibrahim 2018-02-17 late 16bit ... t04.flac": 151940908, "Abdullah Ibrahim 2018-02-17 late 16bit ...
创建时间: 2018-11-04 02:26:12 大小:324 MB 文件数量:8 热度:14 最近下载:2025-09-17 23:11:12
    ... Cover.jpg": 13066, "Ibrahim Maalouf - 01 - Intro.mp3": 890416, "Ibrahim Maalouf - 04 - ... 06 - Oud Improvisation.mp3": 2535456, "Ibrahim Maalouf - 03 - Kanoun Improvisation.mp3 ... ": 2461605, "Ibrahim Maalouf - 05 - Missin' Ya (Night ...
创建时间: 2018-11-04 05:55:26 大小:44.85 MB 文件数量:10 热度:11 最近下载:2023-04-08 05:50:05
    {"front.jpg": 304017, "foo_dr.txt": 2335, "06 - True Sorry (Live a l’Olympia, 2014).flac": 53983975, "02 - La javanaise (Live a l’Olympia, 2014).flac": 57374146, "Ibrahim_Maalouf-10_ans_de_live_Best_Of_Version_Del.pdf": 2044903, "05 - True Sorry (Intro) [ ...
创建时间: 2018-11-04 18:56:44 大小:1.13 GB 文件数量:17 热度:13 最近下载:2025-08-02 18:14:09
    {"front.jpg": 153899, "(06) [Dollar Brand] Mamma.flac": 18549851, "(04) [Dollar Brand] Moniebah.flac": 13217067, "(08) [Dollar Brand] Ubu-Suku.flac": 15177883, "(03) [Dollar Brand] The Wedding.flac": 17575863, "(01) [Dollar Brand] Whoza Mtwana.flac": ...
创建时间: 2018-11-05 05:07:37 大小:170.81 MB 文件数量:12 热度:20 最近下载:2025-09-17 23:11:09
    {"mp3.mp3": 219890, "MEGA ASK.mp3": 5527172, "MEGA ASK (1).mp3": 3149536, "MEGA ASK (2).mp3": 5230358, "MEGA ASK (3).mp3": 3302576, "MEGA ASK (4).mp3": 5266646, "MEGA ASK (5).mp3": 5191162, "MEGA ASK (6).mp3": 3441436, "MEGA ASK (7).mp3": 3591138, ...
创建时间: 2018-11-05 09:30:02 大小:52.42 MB 文件数量:15 热度:9 最近下载:2023-04-09 01:40:02
    ... Hip King.jpg": 412995, "Abdullah Ibrahim Blues for a Hip King ... 001.jpg": 462913, "Abdullah Ibrahim Blues for a Hip King ... 002.jpg": 152466, "Abdullah Ibrahim Blues for a Hip King ... The Postman .flac": 73708095, "Abdullah Ibrahim - Blues For A Hip King ...
创建时间: 2018-11-05 19:59:46 大小:371.67 MB 文件数量:19 热度:13 最近下载:2025-09-17 23:11:01
    {"mp3.mp3": 219890, "yetmezmi.mp3": 4358026, "yetmezmi (1).mp3": 3367463, "yetmezmi (2).mp3": 4201710, "yetmezmi (3).mp3": 3540916, "yetmezmi (4).mp3": 4202128, "yetmezmi (5).mp3": 3554291, "yetmezmi (6).mp3": 4064201, "yetmezmi (7).mp3": 4567842, " ...
创建时间: 2018-11-05 20:42:35 大小:52.25 MB 文件数量:17 热度:11 最近下载:2025-03-20 23:38:02
    {"www.kurdtorrent.com.txt": 38, "yagmurla gelen kadin.mp3": 4370565, "yagmurla gelen kadin (1).mp3": 3579786, "yagmurla gelen kadin (2).mp3": 3248763, "yagmurla gelen kadin (3).mp3": 3646242, "yagmurla gelen kadin (4).mp3": 4132746, "yagmurla gelen kadin ( ...
创建时间: 2018-11-06 01:17:00 大小:46.53 MB 文件数量:15 热度:7 最近下载:2023-04-09 08:50:02
    ... Sensuality.flac": 43731080, "Ibrahim Maalouf - Wind.log": 11612, "Ibrahim Maalouf - Wind.m3u ...
创建时间: 2018-11-06 04:07:11 大小:365.53 MB 文件数量:20 热度:7 最近下载:2023-04-09 10:10:05
    {"folder.jpg": 290157, "16 - Final.mp3": 4710272, "01 - Prelude.mp3": 2604928, "03 - Theme 1.mp3": 2523008, "05 - Theme 2.mp3": 2523008, "08 - Theme 3.mp3": 2592640, "11 - Theme 4.mp3": 3465088, "13 - Theme 5.mp3": 2514816, "02 - Overture.mp3": 13102976, " ...
创建时间: 2018-11-07 03:03:15 大小:108.32 MB 文件数量:17 热度:14 最近下载:2025-08-01 10:20:12
    {"mp3.mp3": 219890, "01) .mp3": 1790224, "02) .mp3": 1630672, "03) .mp3": 1511548, "04) .mp3": 1983904, "05) .mp3": 1279443, "06) .mp3": 1844260, "07) .mp3": 1420144, "08) .mp3": 1921182, "09) .mp3": 1662208, "10) .mp3": 1916116, "11) .mp3": 1693888, "12) ...
创建时间: 2018-11-07 19:08:36 大小:23.05 MB 文件数量:16 热度:6 最近下载:2023-04-10 09:10:02
    {"Folder.jpg": 391178, "05 - Busy.mp3": 25090554, "03 - InPressi.mp3": 10097317, "09 - Illusion.mp3": 8156942, "01 - Illusions.mp3": 8886281, "07 - Unfaithful.mp3": 10805763, "08 - True Sorry.mp3": 11828715, "04 - Nomade Slang.mp3": 14757566, "02 - ...
创建时间: 2018-11-07 22:01:05 大小:121.96 MB 文件数量:10 热度:8 最近下载:2024-08-31 11:58:03
    ... - Glass Enclosure.flac": 33605614, "Abdullah Ibrahim & Ekaya - Sotho Blue.log": 10510 ... , "Abdullah Ibrahim & Ekaya - Sotho Blue.m3u": 222 ...
创建时间: 2018-11-09 08:27:44 大小:249.68 MB 文件数量:16 热度:9 最近下载:2025-09-17 23:11:01
    {"back.jpg": 275653, "front.jpg": 345881, "15 - Libre.mp3": 6892235, "02 - Baikal.mp3": 7213029, "10 - L'aube.mp3": 3452432, "01 - Siberie.mp3": 2412770, "06 - Tempete.mp3": 9652868, "14 - Aleksei.mp3": 4252825, "04 - En Cabane.mp3": 3892336, "09 - ...
创建时间: 2018-11-09 18:47:59 大小:102.15 MB 文件数量:19 热度:16 最近下载:2025-08-05 00:32:04
    {"Soweto.jpg": 35199, "01. Soweto.mp3": 41901705, "03. Sathima.mp3": 27480024, "02. Afican Herbs.mp3": 25495768}
创建时间: 2018-11-09 19:14:57 大小:90.52 MB 文件数量:4 热度:9 最近下载:2025-09-17 23:11:01
    {"covers": {"cd.jpeg": 17249, "back.jpg": 40856, "front.jpg": 24642}, "Selin.cue": 1323, "cover.jpg": 169328, "artist.jpg": 1967326, "folder.jpg": 26270, "05 - Selen.flac": 26693778, "03 - Geriye.flac": 35502583, "09 - Tendre.flac": 31118410, "07 - Anarouz ...
创建时间: 2018-11-10 06:05:23 大小:313.39 MB 文件数量:18 热度:14 最近下载:2025-08-07 03:46:03
    ... Reality.mp3": 5725555}, "1988. Abdullah Ibrahim - Tintinyana": {"Scans": {"cd.jpg": ... Kilimanjaro.mp3": 26210455}, "1979. Abdullah Ibrahim (Dollar Brand) - The Pilgrim": ... 9921676}, "1979. Dollar Brand (Abdullah Ibrahim) - African Marketplace": {"Scans": {"cd ...
创建时间: 2018-11-10 23:42:34 大小:6.04 GB 文件数量:766 热度:10 最近下载:2025-09-17 23:11:09
    {"folder.jpg": 46630, "10 - Elisa.flac": 27140012, "08 - Annette.flac": 7304737, "01 - Dunkerque.flac": 9420150, "09 - L'abandon.flac": 7201002, "Folder.auCDtect.txt": 5186, "03 - Elisa et Noe.flac": 5119976, "04 - La rencontre.flac": 12052204, "06 - Une ...
创建时间: 2018-11-11 02:51:55 大小:120.7 MB 文件数量:14 热度:7 最近下载:2023-04-13 16:10:02